Terminal Aerodrome Forecast
Issued by NWS Mt. Holly, NJ

Home | Current Version | Previous Version | Text Only | Print | Product List | Glossary On
Versions: 1 2 3 4 5 6 7 8 9 10 11 12 13 14 15 16 17 18 19 20 21 22 23 24 25 26 27 28 29 30 31 32 33 34 35 36 37 38 39 40 41 42 43 44 45 46 47 48 49
000
FTAK31 PANC 021741
TAFABE
TAF
PABE 021741Z 0218/0318 12008KT P6SM VCSH SCT003 BKN020
     FM030300 18010KT P6SM -SHRA OVC010
     FM030900 32008KT P6SM OVC010
     FM031500 35005KT P6SM -RA BKN007=

USA.gov is the U.S. government's official web portal to all federal, state and local government web resources and services.